Location: Ferques
(50.8300°N, 1.7599°E)
Time: 05:53:11
(UTC+00:00)

Cosmos 1980 Rocket - Pass Details

Date: 19 May 2025
Orbit: 829 x 847 km, 71.0° (Epoch: 18 June)

Event Time Altitude Azimuth Distance (km) Brightness Sun altitude
Rises 22:28:36 0° 325° (NW) 3,383 6.9 -17.0°
Reaches altitude 10° 22:31:11 10° 318° (NW) 2,446 5.7 -17.1°
Maximum altitude 22:36:17 37° 252° (WSW) 1,265 3.1 -17.4°
Enters shadow 22:39:13 22° 200° (SSW) 1,747 3.4 -17.5°
